Regional Weather Roundup
Issued by NWS

Home | Current Version | Previous Version | Graphics & Text | Print | Product List | Glossary On
Versions: 1 2 3 4 5 6 7 8 9 10 11 12 13 14 15 16 17 18 19 20 21 22 23 24 25 26 27 28 29 30 31 32 33 34 35 36 37 38 39 40 41 42 43 44 45 46 47 48 49 50
000
ASUS43 KMKX 241800
RWRWI

WISCONSIN REGIONAL WEATHER ROUNDUP
NATIONAL WEATHER SERVICE MILWAUKEE/SULLIVAN WI
100 PM CDT FRI MAR 24 2017

NOTE: "FAIR" INDICATES FEW OR NO CLOUDS BELOW 12,000 FEET WITH NO
SIGNIFICANT WEATHER AND/OR OBSTRUCTIONS TO VISIBILITY.

WIZ001-002-006>008-014>016-023>028-241900-
NORTHWEST WISCONSIN

CITY           SKY/WX    TMP DP  RH WIND       PRES   REMARKS
SUPERIOR ARPT  CLOUDY    38  34  86 NE5       30.10R WCI  34
ASHLAND        CLOUDY    38  33  82 N10       30.09R WCI  31
6HR MIN TEMP:  32; 6HR MAX TEMP:  39;

HAYWARD        CLOUDY    40  34  79 N10       30.04R WCI  33
6HR MIN TEMP:  35; 6HR MAX TEMP:  41;

SIREN          CLOUDY    41  34  74 N12       30.05S
CUMBERLAND     CLOUDY    37  34  87 N10       30.03R WCI  30
RICE LAKE      CLOUDY    40  36  88 CALM      30.04R
CHETEK         CLOUDY    39  37  91 N6        30.03R WCI  35
LADYSMITH      CLOUDY    38  36  92 N10       30.03S FOG     WCI  31
EAU CLAIRE     NOT AVBL
MENOMONIE      DRIZZLE   40  38  91 N7        30.02R
NEW RICHMOND   CLOUDY    39  36  88 N9        30.03S WCI  33
OSCEOLA        CLOUDY    42  40  91 N9        30.06S
$$

WIZ003>005-009-010-017-018-241900-
NORTH CENTRAL WISCONSIN

CITY           SKY/WX    TMP DP  RH WIND       PRES   REMARKS
MANITOWISH WTR CLOUDY    33  33 100 NE6       30.01R FOG     WCI  28
ARBOR VITAE    CLOUDY    37  36  96 N5        30.01R FOG     WCI  33
WOODRUFF       CLOUDY    37  36  96 N5        30.01R FOG     WCI  33
RHINELANDER    LGT RAIN  36  35  96 N7        30.00R FOG     WCI  30
6HR MIN TEMP:  34; 6HR MAX TEMP:  37; 6HR PCP:  0.20;

EAGLE RIVER    CLOUDY    33  33 100 N9        30.01R FOG     WCI  26
LAND O LAKES   FOG       33  33 100 N8        30.02R VSB 1   WCI  26
PHILLIPS       CLOUDY    35  35 100 N9        30.01R FOG     WCI  27
TOMAHAWK       LGT RAIN  35  33  94 N7        30.00R WCI  29
MEDFORD        LGT RAIN  36  34  94 N10       29.97S WCI  28
MERRILL        RAIN      37  37 100 NE7       29.98R WCI  31
$$

WIZ029-030-035-036-043>047-241900-
CENTRAL WISCONSIN

CITY           SKY/WX    TMP DP  RH WIND       PRES   REMARKS
WAUSAU         LGT RAIN  38  36  92 NE6       29.96R WCI  33
6HR MIN TEMP:  34; 6HR MAX TEMP:  38; 6HR PCP:  0.11;

MOSINEE        CLOUDY    37  37 100 NE8       29.98R FOG     WCI  31
MARSHFIELD     LGT RAIN  38  37  97 NE8       29.97R FOG     WCI  32
6HR MIN TEMP:  36; 6HR MAX TEMP:  38; 6HR PCP: TRACE;

STEVENS POINT  LGT RAIN  35  35 100 E7        29.96F WCI  29
WAUPACA        LGT RAIN  39  37  91 N7        29.98R WCI  34
WAUTOMA        CLOUDY    40  37  89 NE10      29.96R WCI  33
6HR MIN TEMP:  38; 6HR MAX TEMP:  42;

WISC RAPIDS    LGT RAIN  38  38 100 E8        29.97R FOG     WCI  32
6HR MIN TEMP:  38; 6HR MAX TEMP:  40; 6HR PCP:  0.03;

CAMP DOUGLAS   NOT AVBL
$$

WIZ011>013-019>022-031-037>040-048>050-241900-
NORTHEAST WISCONSIN

CITY           SKY/WX    TMP DP  RH WIND       PRES   REMARKS
ANTIGO         LGT RAIN  35  35 100 NE5       29.98S WCI  31
SHAWANO        RAIN      38  36  92 NE5       30.00R WCI  34
OCONTO         CLOUDY    36  35  95 N6        30.01R WCI  31
STURGEON BAY   LGT RAIN  35  34  96 N10       30.02R FOG     WCI  27
6HR MIN TEMP:  35; 6HR MAX TEMP:  38; 6HR PCP:  0.02;

GREEN BAY      LGT RAIN  38  37  97 NE12      29.99R FOG     WCI  30
6HR MIN TEMP:  37; 6HR MAX TEMP:  41; 6HR PCP:  0.09;

MANITOWOC      NOT AVBL
APPLETON       CLOUDY    37  34  87 N14       29.95R FOG     WCI  29
CLINTONVILLE   RAIN      36  34  93 NE8       29.98S WCI  29
OSHKOSH        CLOUDY    44  37  76 NE15      29.94S
6HR MIN TEMP:  38; 6HR MAX TEMP:  45;

$$

WIZ032>034-041-042-053>061-241900-
SOUTHWEST WISCONSIN

CITY           SKY/WX    TMP DP  RH WIND       PRES   REMARKS
LA CROSSE      CLOUDY    43  41  93 N3        29.97R FOG
6HR MIN TEMP:  41; 6HR MAX TEMP:  43; 6HR PCP:  0.03;

SPARTA         LGT RAIN  41  41  99 N5        29.96R
VIROQUA        CLOUDY    45  42  89 NE6       29.93R
BOSCOBEL       PTSUNNY   57  45  64 E7        29.86F
6HR MIN TEMP:  38; 6HR MAX TEMP:  58;

PRAIRIE DU CHI CLOUDY    51  41  68 CALM      29.85F
PLATTEVILLE    CLOUDY    67  51  56 SW10      29.87S
$$

WIZ056-057-062-063-064-067-068-241900-
SOUTH CENTRAL WISCONSIN

CITY           SKY/WX    TMP DP  RH WIND       PRES   REMARKS
REEDSBURG      CLOUDY    51  43  73 NE5       29.91S
BARABOO/DELLS  CLOUDY    52  41  66 NE8       29.91F
LONE ROCK      NOT AVBL
MINERAL POINT  PTSUNNY   64  52  63 N8        29.87S
MADISON        PTSUNNY   59  48  67 N8        29.89S
6HR MIN TEMP:  40; 6HR MAX TEMP:  60;

MIDDLETON      MOSUNNY   59  49  70 N8        29.90R
WATERTOWN      SUNNY     60  50  69 NW8       29.89S
MONROE         SUNNY     72  48  43 W25       29.87R
JANESVILLE     PTSUNNY   75  48  38 W21G28    29.85F
$$

WIZ051-052-058>065-066-070>072-241900-
SOUTHEAST WISCONSIN

CITY           SKY/WX    TMP DP  RH WIND       PRES   REMARKS
MILWAUKEE      PTSUNNY   54  41  61 NE12      29.90S
6HR MIN TEMP:  41; 6HR MAX TEMP:  65;

WAUKESHA       SUNNY     64  48  55 W10G17    29.90S
MILWAUKEE/TIMM PTSUNNY   63  43  48 NE5       29.89F
RACINE         MOSUNNY   58  44  60 E13       29.89F
6HR MIN TEMP:  45; 6HR MAX TEMP:  70;

KENOSHA        MOSUNNY   75  51  43 W22G29    29.87F
6HR MIN TEMP:  49; 6HR MAX TEMP:  75;

FOND DU LAC    CLOUDY    47  39  74 NE15      29.94S
6HR MIN TEMP:  39; 6HR MAX TEMP:  51;

SHEBOYGAN      PTSUNNY   51  43  74 N10       29.94R
6HR MIN TEMP:  35; 6HR MAX TEMP:  52;

WEST BEND      MOSUNNY   59  48  67 W7        29.90S
JUNEAU         SUNNY     57  47  70 N5        29.91F
$$

LSZ147-162-241900-
LAKE SUPERIOR

STATION/POSITION TIME  TEMP    WIND        PRES    WAVE
                       AIR SEA DIR/SP/G            HT/PER
                 (UTC) (F)     (DEG/KT/KT) (MB)    (FT/S)
DEVILS ISLAND    1700   36     360/  9/  9 1019.2R
PORT WING        1740   36      20/  5/  6 1019.0R
SAXON HARBOR     1730   35     320/  1/  1 1017.9S
$$

LMZ867-665-643>646-241900-
LAKE MICHIGAN

STATION/POSITION TIME  TEMP    WIND        PRES    WAVE
                       AIR SEA DIR/SP/G            HT/PER
                 (UTC) (F)     (DEG/KT/KT) (MB)    (FT/S)
CHAMBERS ISLAND  1740   34     350/  8/  9 1015.9R
NORTHPORT PIER   1740   33     330/  5/  7 1016.6R
SISTER BAY       1705   34      10/ 12/ 14   N/A
KEWAUNEE LAKESHO 1730   39     360/  7/ 12 1014.7R
SHEBOYGAN LAKESH 1700   37      10/ 11/ 13 1014.2R
PORT WASHINGTON  1730   47      70/  2/  3 1014.2R
MILWAUKEE LAKESH 1730   39      50/  8/  9   N/A
KENOSHA   LAKESH 1700   53     130/  6/ 10 1011.9
$$

TC  - TEMPERATURE IN CELSIUS
VSB - VISIBILITY IN STATUTE MILES
WCI - WIND CHILL INDEX
HX  - HEAT INDEX





USA.gov is the U.S. government's official web portal to all federal, state and local government web resources and services.